Regional Weather Roundup
Issued by NWS

Home | Current Version | Previous Version | Graphics & Text | Print | Product List | Glossary On
Versions: 1 2 3 4 5 6 7 8 9 10 11 12 13 14 15 16 17 18 19 20 21 22 23 24 25 26 27 28 29 30 31 32 33 34 35 36 37 38 39 40 41 42 43 44 45 46 47 48 49 50
000
ASUS44 KMEG 300300
RWRTN
TENNESSEE HOURLY STATE WEATHER ROUNDUP
NATIONAL WEATHER SERVICE MEMPHIS TN
1000 PM CDT FRI MAY 29 2015

TNZ002-004-019-021-049-052-054-088>092-300400-
WEST TENNESSEE

CITY           SKY/WX    TMP DP  RH WIND       PRES   REMARKS
MEMPHIS INTL   PTCLDY    76  69  79 SE7       30.00S
NWS MEMPHIS      N/A     73 N/A N/A MISG        N/A
JACKSON        CLOUDY    76  68  76 CALM      30.05R
DYERSBURG      MOCLDY    73  55  53 SE5       30.04R
PARIS          CLEAR     72  66  83 SE6       30.06R
LEXINGTON      CLEAR     72  68  88 E3        30.06R
$$

TNZ008-025-027-028-033-062-065-066-300400-
NORTH MIDDLE TENNESSEE

CITY           SKY/WX    TMP DP  RH WIND       PRES   REMARKS
NASHVILLE      PTCLDY    73  67  81 CALM      30.11R
CLARKSVILLE    MOCLDY    72  68  87 SE5       30.07R
COOKEVILLE     CLEAR     66  66 100 CALM      30.14R
CROSSVILLE     MOCLDY    68  63  84 CALM      30.19R
$$

TNZ061-075-076-078-094-096-097-300400-
SOUTH MIDDLE TENNESSEE

CITY           SKY/WX    TMP DP  RH WIND       PRES   REMARKS
FAYETTEVILLE   CLEAR    N/A N/A N/A MISG      30.13R
TULLAHOMA      CLEAR     70  63  78 CALM      30.15R
WINCHESTER     CLEAR     72  66  83 S3        30.14S
MCMINNVILLE    CLEAR     66  66 100 CALM      30.14S
COLUMBIA       PTCLDY    72  66  83 CALM      30.09R
SHELBYVILLE    MOCLDY    73  66  78 S5        30.13R
$$

TNZ017-018-042-046-047-300400-
NORTHEAST TENNESSEE

CITY           SKY/WX    TMP DP  RH WIND       PRES   REMARKS
TRI CITIES     PTCLDY    65  63  93 CALM      30.20R
ELIZABETHTON   CLEAR     63  63 100 CALM      30.21S
$$

TNZ012-013-036-069-073-074-300400-
CENTRAL EAST TENNESSEE

CITY           SKY/WX    TMP DP  RH WIND       PRES   REMARKS
KNOXVILLE      MOCLDY    71  67  87 CALM      30.16R
OAK RIDGE      PTCLDY    74  64  71 CALM      30.18R
GATLINBURG     CLEAR     66  66 100 CALM      30.17R
$$

TNZ083-085-099-300400-
SOUTHEAST TENNESSEE

CITY           SKY/WX    TMP DP  RH WIND       PRES   REMARKS
CHATTANOOGA    MOCLDY    74  69  85 CALM      30.15R
$$

SKY/WX REPORTED AS FAIR MEANS FEW OR NO CLOUDS BELOW
12 THOUSAND FEET.




USA.gov is the U.S. government's official web portal to all federal, state and local government web resources and services.